RH
36 40 31 28 29 34 37 36 33 34 36 37 37 36 38 39 38 44 53 49 42 38 38 40 40 36 38 43 46 47 46 46 52 56 57 55 54 59 64 65 68 69 69 72
52 44 40 36 34 27 25 30 38 35 34 37 43 47 46 48 51 53 49 44 48 48 48 51 55 58 60 61 57 68 68 71 76 71 69 68 61 62 65 64 59 64 64 62
54 64 74 58 55 48 44 43 36 34 35 38 34 30 30 32 37 49 56 55 61 49 49 43 49 49 55 64 74 79 94 95 91 85 79 79 77 75 82 65 61 62 61 69
79 61 59 61 57 54 56 57 56 46 43 44 41 43 48 49 38 33 38 46 50 75 100 99 97 77 62 59 66 67 77 90 83 93 95 96 84 77 76 82 85 81 80 73
82 89 87 75 61 96 71 51 56 41 46 56 50 44 41 42 61 61 45 49 56 56 59 63 68 80 66 78 72 72 65 60 65 68 75 76 75 75 77 74 72 72 83 86
82 80 88 85 85 91 97 86 82 71 64 53 51 48 42 52 53 44 64 64 54 62 50 57 68 60 64 72 76 97 85 98 100 100 100 100 98 100 99 84 78 91 100 100
89 90 99 100 100 97 96 100 98 97 100 100 100 92 93 87 74 61 46 46 44 46 43 55 78 93 90 100 100 100 100 94 96 100 100 100 100 90 100 100 100 96 95 94
100 100 100 100 90 92 100 100 98 99 99 84 84 99 84 74 79 72 88 72 59 50 50 50 47 61 58 60 63 67 85 100 93 76 97 96 100 100 100 99 90 99 96 80
100 100 100 74 90 77 74 79 85 96 98 97 100 100 100 100 100 94 80 100 81 66 71 79 61 67 86 93 77 98 100 100 100 100 98 89 98 100 100 100 100 98 100 87
98 96 88 79 94 94 91 98 100 100 100 100 100 100 100 100 97 100 100 97 99 98 81 82 85 87 98 100 100 93 70 79 95 97 100 100 100 89 78 84 55 64 66 72
90 100 92 92 88 98 100 100 100 100 100 100 100 100 100 100 100 100 100 100 94 99 100 96 81 100 99 95 100 100 100 99 94 91 87 59 71 69 71 80 65 66 91 100
83 96 97 95 94 97 94 98 96 83 96 100 95 95 97 80 99 100 100 100 100 100 100 100 100 100 96 82 96 100 100 100 74 80 100 100 100 100 100 100 100 97 81 84
100 99 96 100 90 93 94 95 92 96 100 95 97 66 67 64 66 99 100 98 100 100 100 100 100 100 100 100 100 96 100 100 100 100 100 100 100 100 100 100 100 100 100 100
100 100 96 96 95 93 89 67 72 96 74 66 62 56 43 48 38 48 80 86 98 100 100 100 100 100 100 100 100 100 100 100 100 100 100 100 100 100 100 100 100 100 100 100
83 73 57 58 71 62 53 60 64 50 32 30 23 26 25 25 27 28 40 66 82 98 100 100 100 100 100 100 99 100 91 90 97 100 92 90 97 100 100 100 100 100 100 100
61 57 54 47 45 42 38 31 22 17 17 17 17 16 15 14 16 20 25 30 34 62 81 90 100 100 100 100 100 100 100 100 100 100 100 94 97 100 100 100 100 100 100 100
30 28 23 23 24 19 15 14 14 14 13 12 11 10 11 11 12 14 18 20 24 32 39 43 48 74 99 93 91 91 79 82 80 96 98 98 100 100 100 100 100 100 100 96
22 22 19 18 20 17 13 12 11 11 11 10 9 9 10 10 10 11 14 15 14 16 22 33 33 36 44 48 56 64 66 65 58 47 48 56 69 73 79 66 61 80 87 88
18 18 18 14 13 13 12 11 11 10 11 11 11 10 10 10 10 11 11 12 12 13 14 17 20 22 27 29 30 31 32 26 25 21 19 23 27 42 46 39 38 54 48 53
15 14 15 13 12 13 14 13 12 11 11 10 10 10 10 10 10 11 10 10 10 10 11 12 12 13 14 14 16 17 16 16 16 15 15 15 16 20 26 28 24 21 20 20
12 12 15 16 17 16 15 15 13 11 11 10 10 9 10 9 10 10 10 10 10 10 11 12 12 12 11 11 12 12 12 12 12 13 14 14 14 15 18 18 18 18 19 18
14 15 16 17 18 17 14 14 13 13 12 11 11 10 10 9 8 8 8 9 9 9 10 10 10 10 11 11 11 12 12 12 12 13 14 14 13 14 14 14 14 15 16 16
15 15 16 17 18 17 16 15 14 13 12 12 11 10 10 8 8 8 7 7 7 7 7 7 7 8 8 8 9 10 10 11 12 12 12 13 13 13 13 13 14 14 14 15
16 16 14 14 15 16 16 14 12 11 12 12 11 10 10 9 8 8 8 7 7 7 7 7 7 6 6 7 8 8 7 8 8 9 9 9 10 11 12 11 10 11 13 12
12 12 11 11 12 12 13 11 10 10 10 10 10 10 9 9 9 8 8 7 8 7 7 7 7 6 6 7 7 7 7 7 7 7 7 8 8 8 8 9 10 10 10 12
11 10 9 9 9 8 8 9 9 9 8 9 9 9 9 8 8 9 8 7 7 7 7 7 7 7 7 7 7 7 7 7 7 7 7 7 7 8 8 8 9 10 11 12
7 7 6 6 7 7 7 7 9 9 9 9 9 8 9 8 8 8 8 8 7 7 7 6 7 7 7 7 7 6 6 6 7 7 7 7 7 7 8 8 8 10 11 12
Wind_Speed
46 43 37 33 34 34 34 32 29 24 21 22 20 16 12 10 9 12 13 13 10 11 11 13 11 10 9 10 9 9 8 10 11 12 14 15 18 20 20 22 24 26 28 31
38 39 40 39 34 28 29 28 26 24 22 19 14 12 11 12 12 12 11 11 12 14 14 14 15 15 15 14 15 16 18 19 18 19 21 21 21 22 23 25 27 29 30 31
30 29 28 30 31 30 31 35 31 31 29 23 20 19 18 18 16 13 11 10 11 11 10 10 11 10 9 10 10 11 13 15 16 17 19 20 21 22 25 24 26 27 29 31
23 28 26 24 28 28 30 31 33 37 33 28 24 24 25 26 24 22 17 17 15 11 11 14 14 12 10 9 8 8 10 12 13 15 18 19 21 22 24 26 28 30 32 34
23 24 23 24 29 23 27 32 33 44 36 33 32 30 30 26 23 25 25 19 16 16 17 15 15 16 16 16 15 15 16 17 18 20 21 23 25 26 29 31 34 36 37 40
29 29 32 31 28 31 32 35 33 43 47 46 45 43 42 36 37 27 23 25 26 22 21 20 20 18 18 19 18 19 20 22 23 25 25 27 29 31 33 36 37 37 40 40
32 30 36 42 36 36 35 37 41 45 47 47 50 53 53 62 59 55 38 37 29 31 31 26 26 26 24 24 23 25 26 26 27 28 28 29 32 32 33 38 41 41 43 44
43 41 41 46 51 52 48 45 50 51 49 53 57 59 64 66 67 66 59 48 42 37 37 37 34 34 34 33 31 31 30 32 34 33 34 34 36 39 41 43 42 43 48 48
56 53 56 63 60 59 59 58 62 66 64 62 66 72 72 69 68 68 62 63 55 43 41 45 41 39 41 40 41 43 44 42 41 41 44 45 41 42 47 44 50 54 51 56
68 65 66 70 69 71 75 74 74 76 75 74 77 81 78 75 75 69 64 63 62 57 51 48 47 46 48 47 49 50 52 52 50 47 48 49 52 54 54 53 56 56 56 56
72 72 75 78 79 78 78 80 85 86 86 90 89 86 82 76 78 72 71 71 67 67 62 60 54 54 54 55 57 61 59 61 61 60 57 58 60 64 60 63 62 63 60 62
83 85 85 86 87 89 88 88 92 94 95 98 101 99 96 92 88 85 82 77 71 72 75 69 71 70 66 60 59 62 70 73 66 63 66 70 69 64 69 68 70 69 67 65
97 96 93 93 95 99 99 99 103 105 108 107 106 106 102 97 94 93 88 87 79 75 77 78 78 77 72 73 71 67 65 73 74 73 71 72 71 75 77 77 76 75 77 74
105 106 104 105 104 108 107 107 107 113 113 111 108 107 96 97 93 93 93 89 87 83 83 83 84 84 81 79 77 77 77 74 79 81 80 80 80 79 80 79 81 81 81 80
119 119 116 115 117 114 113 116 115 114 110 107 99 93 92 89 88 89 90 92 92 90 85 90 89 91 88 86 86 86 84 83 86 89 87 85 85 83 87 92 89 83 85 86
120 118 118 114 114 113 109 103 98 97 94 92 92 89 86 85 82 82 85 87 88 89 90 89 92 94 95 95 94 94 94 93 92 93 92 91 89 91 94 95 95 93 92 89
111 111 110 107 104 103 97 95 94 91 91 89 85 82 80 79 80 79 78 81 85 86 88 89 88 90 95 97 93 93 91 91 90 91 93 95 97 97 98 98 97 97 96 93
110 108 107 107 104 98 95 91 89 84 81 79 78 76 75 74 76 76 77 78 82 83 86 89 89 89 90 92 93 94 95 94 91 90 90 92 96 97 96 92 91 94 90 90
107 105 103 100 99 98 95 88 81 77 75 74 74 75 74 72 72 74 77 78 80 82 84 85 87 88 89 89 92 93 92 87 86 87 87 88 89 89 88 89 87 86 84 82
104 101 100 100 95 91 87 82 77 75 72 71 70 69 69 70 70 73 73 75 78 77 78 80 82 84 84 84 88 91 91 89 88 87 86 85 85 83 82 86 87 83 81 78
99 93 86 84 84 83 78 77 75 72 71 69 67 65 67 68 67 71 70 71 72 73 76 77 79 80 79 80 80 80 80 81 82 83 83 83 83 81 81 81 82 81 80 77
86 84 83 81 80 80 77 73 72 69 69 68 66 64 65 64 66 70 70 68 69 69 72 74 75 74 74 75 76 76 77 77 77 76 78 79 78 78 77 77 76 76 77 75
83 80 78 77 77 78 79 75 72 69 69 69 68 65 64 62 63 65 65 64 65 65 68 68 68 70 71 72 73 74 73 72 71 71 71 71 72 72 70 71 72 71 71 71
82 80 76 75 74 74 75 75 69 68 68 67 66 64 63 61 63 62 61 62 61 62 63 65 65 65 65 66 66 67 68 68 68 68 68 67 65 65 67 69 68 66 63 62
81 79 76 75 73 71 71 72 69 67 64 65 65 64 62 60 61 63 59 59 60 61 61 59 60 61 61 61 62 62 62 63 60 60 61 62 60 61 62 62 61 60 60 59
78 76 74 74 70 68 67 65 65 66 62 61 61 61 62 60 59 60 60 57 56 58 57 58 57 56 57 57 58 59 58 58 56 54 54 55 55 55 56 57 57 57 57 57
73 73 68 64 64 63 60 58 60 63 63 61 60 57 57 60 60 57 55 54 55 55 54 54 52 53 54 56 56 55 55 53 52 50 49 50 52 52 53 53 52 52 52 52
Wind_Direction
34 44 50 58 57 56 52 47 44 45 52 54 51 52 68 55 48 55 59 51 47 39 43 41 43 37 48 54 55 48 36 28 29 18 12 5 3 359 354 352 357 357 356 355
26 23 26 32 41 43 38 37 40 39 34 26 27 36 40 31 24 28 32 38 44 40 44 49 47 54 55 50 47 37 27 27 27 18 15 13 7 3 356 352 351 348 348 349
15 17 15 17 17 16 14 16 14 11 11 11 8 4 359 355 355 353 345 347 358 5 5 15 18 20 24 29 29 24 14 7 6 2 0 358 357 354 354 349 348 343 341 340
358 357 354 356 356 356 359 359 353 352 356 357 346 341 345 341 335 332 329 333 334 329 338 340 342 345 353 354 359 358 357 350 345 344 340 339 341 347 347 349 349 349 347 342
329 327 324 325 334 331 339 342 340 343 339 336 337 336 336 334 324 324 314 307 307 309 315 316 313 312 322 322 323 326 330 333 337 337 337 336 334 337 339 340 340 341 343 342
313 312 305 306 315 313 315 323 321 324 328 326 323 320 324 323 330 312 309 307 296 294 290 289 292 295 301 304 310 309 311 313 316 320 323 325 325 325 326 328 331 334 334 333
301 306 298 302 298 301 302 307 313 315 315 319 320 321 318 318 318 318 311 313 303 293 290 282 284 286 288 291 295 297 301 302 307 308 308 312 313 314 317 317 318 319 322 325
296 294 289 290 294 294 296 300 305 308 304 308 312 310 308 309 310 312 306 303 303 295 289 294 289 283 286 288 291 291 292 297 302 302 300 300 306 308 311 309 309 312 313 316
284 282 282 289 288 291 296 299 301 303 300 301 304 308 307 303 305 305 304 296 295 291 280 283 288 280 278 284 290 288 290 292 293 295 298 298 297 298 302 301 309 307 307 309
283 284 284 293 300 298 299 300 300 303 302 301 300 302 302 299 299 296 291 295 286 288 282 272 275 275 273 274 274 280 284 284 282 283 285 289 292 294 296 293 298 302 305 305
284 281 288 291 293 292 291 293 296 297 296 297 299 298 296 293 290 290 285 283 287 280 277 272 270 268 270 272 275 277 281 285 285 285 285 286 292 291 293 297 301 302 304 301
281 283 286 287 288 290 291 293 293 294 296 297 297 296 295 293 287 287 285 283 277 273 277 276 275 275 273 268 270 275 278 278 282 284 282 286 292 291 292 295 295 296 297 296
281 282 284 283 286 289 289 292 294 295 294 293 292 291 289 289 285 282 280 282 280 268 266 266 267 269 271 273 272 270 269 275 280 280 282 283 284 286 287 289 291 294 295 294
277 278 279 282 285 287 287 288 289 288 287 285 284 283 282 280 280 279 276 275 275 273 266 269 267 267 266 268 270 270 270 270 274 276 277 279 283 285 288 291 289 289 290 292
277 279 280 281 283 284 284 286 287 285 281 280 279 278 278 274 274 274 271 270 270 270 269 265 267 268 267 268 270 272 274 273 271 272 276 277 278 279 281 284 286 288 288 287
281 282 282 283 284 284 283 283 283 283 282 280 279 277 275 274 270 269 268 269 268 267 267 266 265 266 265 269 269 272 272 273 274 276 280 282 282 278 278 279 282 285 286 288
281 283 284 285 284 284 284 283 283 283 282 281 278 276 272 269 268 266 265 265 266 267 267 267 266 265 265 268 270 271 273 274 276 278 280 278 279 276 277 277 278 281 284 287
282 283 284 284 284 286 286 286 285 282 282 279 277 274 272 270 266 265 264 265 265 263 263 265 267 267 269 270 272 273 274 273 274 275 276 276 277 278 279 280 282 282 284 285
281 282 284 285 285 286 286 286 286 284 281 280 277 273 272 272 268 267 267 265 264 262 263 265 266 267 267 268 270 271 272 273 275 275 274 273 273 275 277 279 280 281 280 280
280 282 283 285 286 285 285 284 285 283 281 279 277 275 273 273 271 269 266 264 265 265 266 267 267 267 267 267 268 269 270 270 272 272 273 274 272 271 274 276 278 279 280 279
280 281 281 282 280 281 281 282 283 282 280 277 276 276 273 271 270 269 269 268 266 266 267 268 268 268 268 268 268 269 271 272 271 270 270 271 273 274 275 277 278 277 278 278
278 279 280 279 280 280 280 279 277 276 275 275 275 274 273 272 270 269 267 267 267 268 268 268 268 268 268 269 269 269 270 270 268 268 270 273 273 272 273 275 275 275 275 275
277 277 276 276 275 276 276 276 274 274 273 273 272 271 270 269 268 270 271 270 269 269 269 268 267 267 267 267 267 268 269 269 270 271 271 271 271 271 271 271 272 273 274 273
275 275 275 274 272 271 272 273 272 273 272 272 274 273 272 271 270 270 270 270 270 269 269 270 271 270 270 269 269 270 272 271 270 270 270 270 271 271 270 271 271 271 272 273
274 274 274 273 272 270 270 271 272 271 270 271 270 271 271 271 272 272 270 269 270 270 270 271 273 272 271 272 272 272 272 272 271 272 272 272 270 270 270 270 270 270 271 272
274 273 272 272 272 272 270 269 270 271 270 268 266 266 269 270 268 268 270 269 268 268 270 271 272 273 273 273 272 271 271 273 274 273 271 272 272 271 272 272 271 270 269 271
272 272 272 272 271 270 269 267 266 266 266 264 264 263 263 267 269 269 268 268 269 270 270 269 271 271 272 273 273 274 275 276 277 275 274 273 272 271 272 273 273 273 272 272